When you browse on this site, cookies collect data to enhance your experience and personalize the content and advertising you see.
Visit our Privacy Policy to learn more. By continuing to use the site, you agree to this use of cookies and data.
  • In Portugal
  • List of Countries
  • For 7 days
  • Water Temperature
  • Weather Map
  • Weather Widgets
  • user-avatar
    Login

    Hourly Weather El Guna

    Today, 23 September, Monday

    Time Temperature Precipitation Wind Pressure Humidity
    00:00 +27°C° 0 mm 3 mps 731 mmHg 46%
    01:00 +26°C° 0 mm 3 mps 730 mmHg 49%
    02:00 +26°C° 0 mm 2 mps 730 mmHg 52%
    03:00 +25°C° 0 mm 2 mps 730 mmHg 53%
    04:00 +24°C° 0 mm 2 mps 731 mmHg 54%
    05:00 +24°C° 0 mm 2 mps 731 mmHg 55%
    06:00 +26°C° 0 mm 2 mps 731 mmHg 47%
    07:00 +28°C° 0 mm 2 mps 732 mmHg 39%
    08:00 +31°C° 0 mm 3 mps 732 mmHg 30%
    09:00 +34°C° 0 mm 3 mps 732 mmHg 27%
    10:00 +36°C° 0 mm 4 mps 732 mmHg 23%
    11:00 +38°C° 0 mm 4 mps 732 mmHg 19%
    12:00 +40°C° 0 mm 5 mps 731 mmHg 19%
    13:00 +40°C° 0 mm 6 mps 731 mmHg 18%
    14:00 +41°C° 0 mm 7 mps 730 mmHg 18%
    15:00 +40°C° 0 mm 6 mps 730 mmHg 20%
    16:00 +39°C° 0 mm 6 mps 730 mmHg 21%
    17:00 +36°C° 0 mm 6 mps 730 mmHg 22%
    18:00 +34°C° 0 mm 5 mps 730 mmHg 26%
    19:00 +32°C° 0 mm 4 mps 731 mmHg 29%
    20:00 +29°C° 0 mm 3 mps 731 mmHg 33%
    21:00 +29°C° 0 mm 3 mps 731 mmHg 35%
    22:00 +28°C° 0 mm 3 mps 731 mmHg 36%
    23:00 +27°C° 0 mm 3 mps 731 mmHg 38%

    Tomorrow, 24 September, Tuesday

    Time Temperature Precipitation Wind Pressure Humidity
    00:00 +27°C° 0 mm 2 mps 730 mmHg 40%
    01:00 +26°C° 0 mm 2 mps 730 mmHg 41%
    02:00 +26°C° 0 mm 2 mps 730 mmHg 43%
    03:00 +25°C° 0 mm 2 mps 730 mmHg 46%
    04:00 +24°C° 0 mm 2 mps 730 mmHg 50%
    05:00 +23°C° 0 mm 2 mps 730 mmHg 54%
    06:00 +25°C° 0 mm 2 mps 731 mmHg 46%
    07:00 +28°C° 0 mm 2 mps 731 mmHg 39%
    08:00 +30°C° 0 mm 3 mps 732 mmHg 32%
    09:00 +33°C° 0 mm 3 mps 731 mmHg 28%
    10:00 +35°C° 0 mm 3 mps 731 mmHg 24%
    11:00 +37°C° 0 mm 4 mps 731 mmHg 19%
    12:00 +38°C° 0 mm 4 mps 731 mmHg 19%
    13:00 +39°C° 0 mm 5 mps 731 mmHg 18%
    14:00 +40°C° 0 mm 5 mps 730 mmHg 17%
    15:00 +39°C° 0 mm 5 mps 730 mmHg 19%
    16:00 +36°C° 0 mm 5 mps 730 mmHg 21%
    17:00 +35°C° 0 mm 5 mps 729 mmHg 23%
    18:00 +33°C° 0 mm 4 mps 730 mmHg 26%
    19:00 +30°C° 0 mm 3 mps 730 mmHg 29%
    20:00 +28°C° 0 mm 2 mps 730 mmHg 32%
    21:00 +27°C° 0 mm 2 mps 730 mmHg 33%
    22:00 +27°C° 0 mm 2 mps 730 mmHg 33%
    23:00 +27°C° 0 mm 2 mps 730 mmHg 33%

    Day after tomorrow, 25 September, Wednesday

    Time Temperature Precipitation Wind Pressure Humidity
    00:00 +26°C° 0 mm 2 mps 730 mmHg 36%
    01:00 +25°C° 0 mm 2 mps 730 mmHg 38%
    02:00 +24°C° 0 mm 2 mps 729 mmHg 40%
    03:00 +24°C° 0 mm 2 mps 729 mmHg 41%
    04:00 +23°C° 0 mm 2 mps 729 mmHg 42%
    05:00 +22°C° 0 mm 1 mps 729 mmHg 44%
    06:00 +25°C° 0 mm 2 mps 730 mmHg 36%
    07:00 +27°C° 0 mm 2 mps 730 mmHg 29%
    08:00 +30°C° 0 mm 2 mps 731 mmHg 21%
    09:00 +32°C° 0 mm 2 mps 731 mmHg 17%
    10:00 +35°C° 0 mm 3 mps 731 mmHg 14%
    11:00 +38°C° 0 mm 3 mps 731 mmHg 10%
    12:00 +38°C° 0 mm 4 mps 731 mmHg 10%
    13:00 +40°C° 0 mm 4 mps 730 mmHg 9%
    14:00 +41°C° 0 mm 5 mps 730 mmHg 8%
    15:00 +39°C° 0 mm 5 mps 730 mmHg 10%
    16:00 +37°C° 0 mm 5 mps 730 mmHg 12%
    17:00 +35°C° 0 mm 5 mps 730 mmHg 13%
    18:00 +33°C° 0 mm 4 mps 730 mmHg 14%
    19:00 +29°C° 0 mm 3 mps 730 mmHg 15%
    20:00 +26°C° 0 mm 2 mps 731 mmHg 17%
    21:00 +27°C° 0 mm 2 mps 731 mmHg 17%
    22:00 +27°C° 0 mm 2 mps 731 mmHg 18%
    23:00 +27°C° 0 mm 2 mps 731 mmHg 19%

    26 September, Thursday

    Time Temperature Precipitation Wind Pressure Humidity
    00:00 +26°C° 0 mm 2 mps 731 mmHg 21%
    01:00 +25°C° 0 mm 2 mps 731 mmHg 23%
    02:00 +25°C° 0 mm 2 mps 730 mmHg 25%
    03:00 +24°C° 0 mm 1 mps 730 mmHg 26%
    04:00 +23°C° 0 mm 1 mps 730 mmHg 28%
    05:00 +22°C° 0 mm 1 mps 730 mmHg 30%
    06:00 +26°C° 0 mm 1 mps 731 mmHg 24%
    07:00 +29°C° 0 mm 2 mps 732 mmHg 17%
    08:00 +32°C° 0 mm 2 mps 732 mmHg 11%
    09:00 +35°C° 0 mm 2 mps 732 mmHg 10%
    10:00 +37°C° 0 mm 3 mps 732 mmHg 10%
    11:00 +38°C° 0 mm 4 mps 732 mmHg 9%
    12:00 +40°C° 0 mm 4 mps 732 mmHg 9%
    13:00 +41°C° 0 mm 4 mps 731 mmHg 9%
    14:00 +41°C° 0 mm 5 mps 731 mmHg 9%
    15:00 +40°C° 0 mm 5 mps 730 mmHg 11%
    16:00 +38°C° 0 mm 4 mps 730 mmHg 13%
    17:00 +36°C° 0 mm 4 mps 730 mmHg 15%
    18:00 +34°C° 0 mm 3 mps 730 mmHg 18%
    19:00 +31°C° 0 mm 3 mps 730 mmHg 20%
    20:00 +28°C° 0 mm 2 mps 730 mmHg 23%
    21:00 +28°C° 0 mm 2 mps 731 mmHg 24%
    22:00 +28°C° 0 mm 2 mps 731 mmHg 25%
    23:00 +28°C° 0 mm 3 mps 731 mmHg 26%

    27 September, Friday

    Time Temperature Precipitation Wind Pressure Humidity
    00:00 +28°C° 0 mm 2 mps 730 mmHg 28%
    01:00 +27°C° 0 mm 2 mps 730 mmHg 29%
    02:00 +26°C° 0 mm 1 mps 730 mmHg 31%
    03:00 +26°C° 0 mm 1 mps 730 mmHg 33%
    04:00 +25°C° 0 mm 1 mps 730 mmHg 35%
    05:00 +24°C° 0 mm 1 mps 730 mmHg 37%
    06:00 +27°C° 0 mm 1 mps 731 mmHg 32%
    07:00 +30°C° 0 mm 2 mps 731 mmHg 26%
    08:00 +35°C° 0 mm 2 mps 732 mmHg 21%
    09:00 +36°C° 0 mm 2 mps 732 mmHg 18%
    10:00 +38°C° 0 mm 3 mps 732 mmHg 16%
    11:00 +39°C° 0 mm 3 mps 732 mmHg 13%
    12:00 +41°C° 0 mm 4 mps 731 mmHg 13%
    13:00 +41°C° 0 mm 4 mps 731 mmHg 13%
    14:00 +42°C° 0 mm 4 mps 730 mmHg 13%
    15:00 +41°C° 0 mm 4 mps 730 mmHg 15%
    16:00 +38°C° 0 mm 4 mps 730 mmHg 18%
    17:00 +37°C° 0 mm 3 mps 730 mmHg 20%
    18:00 +34°C° 0 mm 3 mps 730 mmHg 24%
    19:00 +31°C° 0 mm 3 mps 730 mmHg 28%
    20:00 +29°C° 0 mm 2 mps 730 mmHg 33%
    21:00 +29°C° 0 mm 2 mps 730 mmHg 32%
    22:00 +29°C° 0 mm 2 mps 730 mmHg 32%
    23:00 +28°C° 0 mm 2 mps 730 mmHg 31%

    28 September, Saturday

    Time Temperature Precipitation Wind Pressure Humidity
    00:00 +28°C° 0 mm 2 mps 730 mmHg 34%
    01:00 +27°C° 0 mm 2 mps 730 mmHg 37%
    02:00 +26°C° 0 mm 2 mps 730 mmHg 40%
    03:00 +26°C° 0 mm 2 mps 730 mmHg 43%
    04:00 +25°C° 0 mm 2 mps 730 mmHg 47%
    05:00 +25°C° 0 mm 1 mps 730 mmHg 50%
    06:00 +27°C° 0 mm 1 mps 731 mmHg 43%
    07:00 +30°C° 0 mm 2 mps 731 mmHg 36%
    08:00 +32°C° 0 mm 2 mps 732 mmHg 29%
    09:00 +35°C° 0 mm 2 mps 732 mmHg 26%
    10:00 +37°C° 0 mm 3 mps 732 mmHg 22%
    11:00 +40°C° 0 mm 4 mps 732 mmHg 18%
    12:00 +40°C° 0 mm 4 mps 731 mmHg 18%
    13:00 +41°C° 0 mm 4 mps 731 mmHg 18%
    14:00 +42°C° 0 mm 4 mps 730 mmHg 17%
    15:00 +40°C° 0 mm 4 mps 730 mmHg 20%
    16:00 +38°C° 0 mm 4 mps 730 mmHg 23%
    17:00 +36°C° 0 mm 4 mps 729 mmHg 26%
    18:00 +34°C° 0 mm 4 mps 730 mmHg 30%
    19:00 +31°C° 0 mm 3 mps 730 mmHg 35%
    20:00 +29°C° 0 mm 2 mps 730 mmHg 39%
    21:00 +29°C° 0 mm 2 mps 730 mmHg 39%
    22:00 +28°C° 0 mm 2 mps 730 mmHg 39%
    23:00 +28°C° 0 mm 1 mps 730 mmHg 39%
    Show more